Find Yaogan 30 hao 03 zu 02 xing

NORAD ID: 43082 Int'l Des: 2017-085 Owner: ZLZB Country: CN Constellation: yaogan operational
LEOCIRCULAR

Current View

Loading 3D Globe...

About Yaogan 30 hao 03 zu 02 xing

Description loading...

Upcoming Passes

Passes for default location (London). Set your location on the main map for personalized predictions.

Altitude History

Loading altitude history...

Two-Line Element Set

1 43082U 17085B 26151.56517372 .00003826 00000-0 28354-3 0 9993
2 43082 34.9950 251.4547 0004872 206.4553 153.5907 15.02609769460198
Epoch: May 31, 2026 • Age: 5 hours

Current Status

Altitude 565.5 km
Velocity 7.58 km/s
Sub-Earth Point -27.19°S, 42.45°E
Launch Date Dec 25, 2017
Age 8.4 years
Type military

Technical Details

Classification Payload
Mass 500.00 kg
Dry Mass 500.00 kg
Total Mass 500.00 kg
Length 0.50 m
Diameter 0.50 m
Span 1.00 m
Shape Box + 2 Pan
Manufacturer SECM
Phase Status In Orbit
Owner/State ZLZB/CN

Most Searched